This is the latest recevied weather packets stored in our database for station/object SP6PWT-13. If no packets are shown the sender has not sent any weather packets the latest 1 day(s).
| Time | Temp. | Humidity | Pressure | Rain* | Wind** | Luminosity | Snow |
|---|---|---|---|---|---|---|---|
| 1777988141 | 27.78° C | 31% | 989.6 hPa | 0 mm | 0.89 m/s, 348° | 422 W/m² | - |
| 1777987833 | 27.22° C | 31% | 989.4 hPa | 0 mm | 1.79 m/s, 95° | 428 W/m² | - |
| 1777987530 | 26.67° C | 32% | 989.6 hPa | 0 mm | 0.45 m/s, 150° | 458 W/m² | - |
| 1777987230 | 27.22° C | 31% | 989.7 hPa | 0 mm | 0.45 m/s, 30° | 376 W/m² | - |
| 1777986929 | 26.67° C | 32% | 989.7 hPa | 0 mm | 0 m/s | 265 W/m² | - |
| 1777986618 | 26.67° C | 32% | 989.7 hPa | 0 mm | 1.34 m/s, 330° | 375 W/m² | - |
| 1777986318 | 26.11° C | 34% | 989.7 hPa | 0 mm | 1.34 m/s, 183° | 507 W/m² | - |
| 1777986007 | 26.67° C | 33% | 989.8 hPa | 0 mm | 1.79 m/s, 216° | 445 W/m² | - |
| 1777985707 | 26.67° C | 32% | 989.8 hPa | 0 mm | 1.79 m/s, 244° | 481 W/m² | - |
| 1777985406 | 26.67° C | 32% | 989.9 hPa | 0 mm | 0.89 m/s, 270° | 540 W/m² | - |
| 1777985106 | 26.11° C | 34% | 989.9 hPa | 0 mm | 1.79 m/s, 208° | 553 W/m² | - |
| 1777984805 | 25.56° C | 34% | 990 hPa | 0 mm | 1.34 m/s, 216° | 565 W/m² | - |
| 1777984505 | 25.56° C | 35% | 989.9 hPa | 0 mm | 1.34 m/s, 328° | 572 W/m² | - |
| 1777984205 | 26.11° C | 34% | 990.2 hPa | 0 mm | 2.24 m/s, 27° | 553 W/m² | - |
| 1777983904 | 25.56° C | 34% | 990.2 hPa | 0 mm | 0.45 m/s, 49° | 586 W/m² | - |
| 1777983603 | 26.11° C | 34% | 990.3 hPa | 0 mm | 1.79 m/s, 280° | 587 W/m² | - |
| 1777983302 | 25.56° C | 35% | 990.4 hPa | 0 mm | 1.34 m/s, 163° | 586 W/m² | - |
| 1777983002 | 26.11° C | 34% | 990.3 hPa | 0 mm | 1.79 m/s, 303° | 598 W/m² | - |
| 1777982701 | 25.56° C | 34% | 990.4 hPa | 0 mm | 1.79 m/s, 349° | 602 W/m² | - |
| 1777982401 | 25.56° C | 34% | 990.3 hPa | 0 mm | 0.89 m/s, 16° | 613 W/m² | - |
| 1777982101 | 25.56° C | 34% | 990.4 hPa | 0 mm | 0.45 m/s, 45° | 612 W/m² | - |
| 1777981800 | 25.56° C | 34% | 990.4 hPa | 0 mm | 0 m/s | 628 W/m² | - |
| 1777981499 | 25° C | 35% | 990.5 hPa | 0 mm | 0.45 m/s, 183° | 477 W/m² | - |
| 1777981198 | 25° C | 35% | 990.6 hPa | 0 mm | 1.34 m/s, 188° | 674 W/m² | - |
| 1777980897 | 24.44° C | 37% | 990.6 hPa | 0 mm | 0.89 m/s, 125° | 440 W/m² | - |
* Rain latest hour (hover to see other rain measurements)
** Current wind speed in m/s (hover to see current wind gust speed)